Tracking 23757 objects as of 26-Oct-2021
HD Live streaming from Space Station
objects crossing your sky now

STARLINK-1720

Track STARLINK-1720 now!
10-day predictions
STARLINK-1720 is classified as:


NORAD ID: 46675
Int'l Code: 2020-073F
Perigee: 553.1 km
Apogee: 555.6 km
Inclination: 53.1 °
Period: 95.6 minutes
Semi major axis: 6925 km
RCS: Unknown
Launch date: October 18, 2020
Source: United States (US)
Launch site: AIR FORCE EASTERN TEST RANGE (AFETR)
aabbcc
Your satellite tracking list
Your tracking list is empty




NASA's NSSDC Master Catalog

Two Line Element Set (TLE):
1 46675U 20073F   21298.14079821  .00001980  00000-0  15177-3 0  9996
2 46675  53.0547 208.8119 0001775  61.4186 298.6981 15.06399476 56496
Source of the keplerian elements: AFSPC